Regional Weather Roundup
Issued by NWS

Home | Current Version | Previous Version | Text Only | Print | Product List | Glossary Off
Versions: 1 2 3 4 5 6 7 8 9 10 11 12 13 14 15 16 17 18 19 20 21 22 23 24 25 26 27 28 29 30 31 32 33 34 35 36 37 38 39 40 41 42 43 44 45 46 47 48 49 50

414
ASUS43 KLSX 231307
RWRMO

WEATHER SUMMARY FOR MISSOURI
NATIONAL WEATHER SERVICE SPRINGFIELD MO
800 AM CDT SAT SEP 23 2017

NOTE: "FAIR" INDICATES FEW OR NO CLOUDS BELOW 12,000 FEET WITH NO
       SIGNIFICANT WEATHER AND/OR OBSTRUCTIONS TO VISIBILITY.
       CURRENT SKY AND/OR WEATHER CONDITIONS ARE NOT AVAILABLE FOR
       CHILLICOTHE AND FARMINGTON.

MOZ001>031-035>038-043-044-053-054-231400-
...NORTHERN AND WESTERN MISSOURI...

CITY           SKY/WX    TMP DP  RH WIND       PRES   REMARKS
KANSAS CTY INT PTCLDY    71  68  90 S6        30.01R
KANSAS C DTWN  CLEAR     75  69  81 S8        30.00R
LEE`S SUMMIT   CLEAR     72  68  87 S8        30.03R
ST JOSEPH      CLEAR     71  69  93 S6        29.99R
CHILLICOTHE      N/A     70  68  93 CALM      30.03R
KIRKSVILLE     SUNNY     69  65  86 SE3       30.06R

$$
MOZ066>068-077>081-088>096-101>105-231400-
...SOUTHWEST MISSOURI...

CITY           SKY/WX    TMP DP  RH WIND       PRES   REMARKS
SPRINGFIELD    SUNNY     71  68  90 SE5       30.05R
JOPLIN         CLEAR     71  68  90 SE3       30.03R

$$
MOZ032>034-039>042-045>050-055>058-069>072-231400-
...CENTRAL MISSOURI...

CITY           SKY/WX    TMP DP  RH WIND       PRES   REMARKS
COLUMBIA       SUNNY     70  67  90 SE6       30.06R
JEFFERSON CITY SUNNY     67  64  90 CALM      30.05R
ROLLA          SUNNY     72  67  84 S7        30.08R
SEDALIA          N/A     71  69  93 SE3       30.05R
WHITEMAN AFB   SUNNY     70  70 100 S5        30.02R
WARRENSBURG    SUNNY     68  64  88 CALM      30.02R
OSAGE BEACH    MOSUNNY   69  66  90 SE3       30.07R

$$
MOZ051-052-059>065-231400-
...EAST CENTRAL MISSOURI...

CITY           SKY/WX    TMP DP  RH WIND       PRES   REMARKS
ST LOUIS INTL  MOSUNNY   73  68  84 E5        30.07R
SPIRIT OF STL  SUNNY     68  67  96 CALM      30.05R
ST CHARLES     SUNNY     72  68  87 E5        30.05R

$$
MOZ072>076-082>087-097>100-106>115-231400-
...SOUTH CENTRAL AND SOUTHEAST MISSOURI...

CITY           SKY/WX    TMP DP  RH WIND       PRES   REMARKS
CAPE GIRARDEAU SUNNY     68  67  96 CALM      30.05S FOG
FARMINGTON     SUNNY     66  63  90 CALM      30.09R
POPLAR BLUFF   SUNNY     70  68  93 CALM      30.04R FOG
WEST PLAINS    SUNNY     68  65  90 CALM      30.09R

$$



USA.gov is the U.S. government's official web portal to all federal, state and local government web resources and services.